Time,TemperatureF,DewpointF,PressureIn,WindDirection,WindDirectionDegrees,WindSpeedMPH,WindSpeedGustMPH,Humidity,HourlyPrecipIn,Conditions,Clouds,dailyrainin,SoftwareType,DateUTC
2013-11-17 00:01:00,55.7,54.9,29.68,SE,125,4.3,8.3,97,0.04,,---,0.00,VWS V14.01,2013-11-17 05:01:00,
2013-11-17 00:02:00,55.7,54.9,29.68,SE,125,4.3,8.3,97,0.04,,---,0.00,VWS V14.01,2013-11-17 05:02:00,
2013-11-17 00:03:00,55.7,54.9,29.68,SW,215,12.6,12.6,97,0.04,,---,0.00,VWS V14.01,2013-11-17 05:03:00,
2013-11-17 00:04:00,55.7,54.9,29.68,SW,215,12.6,12.6,97,0.04,,---,0.00,VWS V14.01,2013-11-17 05:04:00,
2013-11-17 00:05:00,55.7,54.9,29.68,SE,125,11.6,12.6,97,0.04,,---,0.00,VWS V14.01,2013-11-17 05:05:00,
2013-11-17 00:09:00,55.9,55.3,29.68,SW,215,8.3,8.3,98,0.00,,---,0.00,VWS V14.01,2013-11-17 05:09:00,
2013-11-17 00:14:00,56.1,55.2,29.68,SE,125,11.6,15.9,97,0.00,,---,0.00,VWS V14.01,2013-11-17 05:14:00,
2013-11-17 00:19:00,56.1,55.2,29.68,South,170,8.6,15.9,97,0.00,,---,0.00,VWS V14.01,2013-11-17 05:19:00,
2013-11-17 00:24:00,56.1,55.5,29.68,SW,215,9.3,9.3,98,0.00,,---,0.00,VWS V14.01,2013-11-17 05:24:00,
2013-11-17 00:29:00,56.1,55.2,29.68,SW,215,8.3,8.3,97,0.00,,---,0.00,VWS V14.01,2013-11-17 05:29:00,
2013-11-17 00:34:00,56.1,55.5,29.68,SW,215,15.9,15.9,98,0.00,,---,0.00,VWS V14.01,2013-11-17 05:34:00,
2013-11-17 00:39:00,56.1,55.5,29.68,SW,215,12.6,12.6,98,0.00,,---,0.00,VWS V14.01,2013-11-17 05:39:00,
2013-11-17 00:44:00,56.4,55.6,29.68,North,350,8.6,8.6,97,0.00,,---,0.00,VWS V14.01,2013-11-17 05:44:00,
2013-11-17 00:49:00,56.4,55.6,29.68,West,260,8.9,15.9,97,0.00,,---,0.00,VWS V14.01,2013-11-17 05:49:00,
2013-11-17 00:54:00,56.8,55.9,29.68,SE,125,6.3,6.3,97,0.05,,---,0.05,VWS V14.01,2013-11-17 05:54:00,
2013-11-17 00:59:00,56.8,55.9,29.68,SE,125,6.0,12.9,97,0.05,,---,0.05,VWS V14.01,2013-11-17 05:59:00,
2013-11-17 01:04:00,56.8,55.9,29.68,SW,215,9.3,9.6,97,0.05,,---,0.05,VWS V14.01,2013-11-17 06:04:00,
2013-11-17 01:09:00,56.8,55.9,29.68,SW,215,10.9,10.9,97,0.05,,---,0.05,VWS V14.01,2013-11-17 06:09:00,
2013-11-17 01:14:00,56.8,55.9,29.65,SW,215,18.2,18.2,97,0.05,,---,0.05,VWS V14.01,2013-11-17 06:14:00,
2013-11-17 01:19:00,57.0,56.1,29.65,SW,215,9.6,9.6,97,0.05,,---,0.05,VWS V14.01,2013-11-17 06:19:00,
2013-11-17 01:24:00,57.0,56.1,29.65,SE,125,8.9,8.9,97,0.05,,---,0.05,VWS V14.01,2013-11-17 06:24:00,
2013-11-17 01:29:00,57.3,56.5,29.65,SE,125,6.0,8.9,97,0.05,,---,0.05,VWS V14.01,2013-11-17 06:29:00,
2013-11-17 01:34:00,57.3,56.5,29.65,SW,215,4.6,4.6,97,0.05,,---,0.05,VWS V14.01,2013-11-17 06:34:00,
2013-11-17 01:40:00,57.3,56.2,29.65,SW,215,3.6,16.2,96,0.05,,---,0.05,VWS V14.01,2013-11-17 06:40:00,
2013-11-17 01:45:00,57.5,56.7,29.65,SW,215,3.3,5.0,97,0.05,,---,0.05,VWS V14.01,2013-11-17 06:45:00,
2013-11-17 01:50:00,57.3,56.2,29.65,East,80,7.9,12.9,96,0.05,,---,0.05,VWS V14.01,2013-11-17 06:50:00,
2013-11-17 01:55:00,57.9,57.0,29.65,SW,215,11.9,18.2,97,0.00,,---,0.05,VWS V14.01,2013-11-17 06:55:00,
2013-11-17 02:00:00,57.9,56.7,29.65,West,260,7.3,10.9,96,0.00,,---,0.05,VWS V14.01,2013-11-17 07:00:00,
2013-11-17 02:05:00,57.9,56.7,29.65,SW,215,7.9,7.9,96,0.00,,---,0.05,VWS V14.01,2013-11-17 07:05:00,
2013-11-17 02:10:00,57.9,56.7,29.65,SW,215,7.3,8.6,96,0.00,,---,0.05,VWS V14.01,2013-11-17 07:10:00,
2013-11-17 02:15:00,58.0,56.9,29.65,SE,125,7.3,8.3,96,0.00,,---,0.05,VWS V14.01,2013-11-17 07:15:00,
2013-11-17 02:20:00,58.0,56.9,29.65,WSW,238,4.6,11.3,96,0.00,,---,0.05,VWS V14.01,2013-11-17 07:20:00,
2013-11-17 02:25:00,58.4,57.0,29.65,SW,215,6.3,11.6,95,0.00,,---,0.05,VWS V14.01,2013-11-17 07:25:00,
2013-11-17 02:30:00,58.2,57.1,29.65,WNW,282,8.6,10.9,96,0.00,,---,0.05,VWS V14.01,2013-11-17 07:30:00,
2013-11-17 02:35:00,58.2,57.1,29.65,SW,215,7.3,8.9,96,0.00,,---,0.05,VWS V14.01,2013-11-17 07:35:00,
2013-11-17 02:40:00,58.2,57.1,29.65,SW,215,8.3,8.3,96,0.00,,---,0.05,VWS V14.01,2013-11-17 07:40:00,
2013-11-17 02:45:00,58.2,56.8,29.62,SW,215,5.3,10.9,95,0.00,,---,0.05,VWS V14.01,2013-11-17 07:45:00,
2013-11-17 02:50:00,58.2,56.8,29.62,SW,215,8.3,8.3,95,0.00,,---,0.05,VWS V14.01,2013-11-17 07:50:00,
2013-11-17 02:55:00,58.4,57.0,29.62,SE,125,12.9,12.9,95,0.00,,---,0.05,VWS V14.01,2013-11-17 07:55:00,
2013-11-17 03:00:00,58.6,57.2,29.62,West,260,7.3,7.3,95,0.00,,---,0.05,VWS V14.01,2013-11-17 08:00:00,
2013-11-17 03:05:00,58.6,57.2,29.62,SW,215,9.3,9.3,95,0.00,,---,0.05,VWS V14.01,2013-11-17 08:05:00,
2013-11-17 03:10:00,58.6,57.2,29.62,SW,215,7.9,7.9,95,0.00,,---,0.05,VWS V14.01,2013-11-17 08:10:00,
2013-11-17 03:15:00,58.6,57.2,29.62,ESE,102,6.3,11.9,95,0.00,,---,0.05,VWS V14.01,2013-11-17 08:15:00,
2013-11-17 03:20:00,58.8,57.3,29.62,SE,125,5.0,7.9,95,0.00,,---,0.05,VWS V14.01,2013-11-17 08:20:00,
2013-11-17 03:25:00,58.8,57.3,29.62,SW,215,5.0,8.9,95,0.00,,---,0.05,VWS V14.01,2013-11-17 08:25:00,
2013-11-17 03:30:00,58.6,57.2,29.62,SE,125,7.9,7.9,95,0.00,,---,0.05,VWS V14.01,2013-11-17 08:30:00,
2013-11-17 03:35:00,58.8,57.3,29.62,SW,215,6.0,7.9,95,0.00,,---,0.05,VWS V14.01,2013-11-17 08:35:00,
2013-11-17 03:40:00,58.8,57.3,29.62,SE,125,8.3,8.6,95,0.00,,---,0.05,VWS V14.01,2013-11-17 08:40:00,
2013-11-17 03:45:00,58.8,57.0,29.62,SE,125,7.0,7.9,94,0.00,,---,0.05,VWS V14.01,2013-11-17 08:45:00,
2013-11-17 03:50:00,58.8,57.3,29.62,West,260,9.3,9.3,95,0.00,,---,0.05,VWS V14.01,2013-11-17 08:50:00,
2013-11-17 03:55:00,58.6,57.2,29.62,SE,125,11.3,11.3,95,0.00,,---,0.05,VWS V14.01,2013-11-17 08:55:00,
2013-11-17 04:00:00,58.6,57.2,29.62,SE,125,13.2,13.2,95,0.00,,---,0.05,VWS V14.01,2013-11-17 09:00:00,
2013-11-17 04:05:00,58.6,57.2,29.62,SW,215,4.3,8.3,95,0.00,,---,0.05,VWS V14.01,2013-11-17 09:05:00,
2013-11-17 04:10:00,58.4,57.0,29.62,West,260,4.0,4.0,95,0.00,,---,0.05,VWS V14.01,2013-11-17 09:10:00,
2013-11-17 04:15:00,58.6,57.2,29.62,West,260,4.6,6.0,95,0.00,,---,0.05,VWS V14.01,2013-11-17 09:15:00,
2013-11-17 04:20:00,58.4,57.0,29.62,SW,215,4.0,6.0,95,0.00,,---,0.05,VWS V14.01,2013-11-17 09:20:00,
2013-11-17 04:25:00,58.4,57.0,29.62,SW,215,5.6,5.6,95,0.00,,---,0.05,VWS V14.01,2013-11-17 09:25:00,
2013-11-17 04:30:00,58.4,57.3,29.62,SE,125,5.0,5.0,96,0.00,,---,0.05,VWS V14.01,2013-11-17 09:30:00,
2013-11-17 04:35:00,58.2,57.1,29.62,SW,215,5.0,5.6,96,0.00,,---,0.05,VWS V14.01,2013-11-17 09:35:00,
2013-11-17 04:40:00,58.2,57.1,29.62,SW,215,5.6,5.6,96,0.00,,---,0.05,VWS V14.01,2013-11-17 09:40:00,
2013-11-17 04:46:00,58.0,56.9,29.62,SW,215,4.6,8.3,96,0.00,,---,0.05,VWS V14.01,2013-11-17 09:46:00,
2013-11-17 04:51:00,57.9,56.7,29.62,SW,215,4.0,7.3,96,0.00,,---,0.05,VWS V14.01,2013-11-17 09:51:00,
2013-11-17 04:56:00,58.0,56.9,29.62,SE,125,3.6,6.3,96,0.00,,---,0.05,VWS V14.01,2013-11-17 09:56:00,
2013-11-17 05:01:00,58.0,56.9,29.62,SW,215,3.6,3.6,96,0.00,,---,0.05,VWS V14.01,2013-11-17 10:01:00,
2013-11-17 05:06:00,58.0,56.9,29.62,SW,215,4.0,11.3,96,0.00,,---,0.05,VWS V14.01,2013-11-17 10:06:00,
2013-11-17 05:11:00,57.9,56.7,29.62,SE,125,8.6,8.6,96,0.04,,---,0.09,VWS V14.01,2013-11-17 10:11:00,
2013-11-17 05:16:00,58.0,56.9,29.62,SE,125,3.0,5.3,96,0.04,,---,0.09,VWS V14.01,2013-11-17 10:16:00,
2013-11-17 05:21:00,57.9,56.7,29.62,West,260,5.6,5.6,96,0.04,,---,0.09,VWS V14.01,2013-11-17 10:21:00,
2013-11-17 05:26:00,58.0,57.2,29.62,SE,125,2.3,2.3,97,0.04,,---,0.09,VWS V14.01,2013-11-17 10:26:00,
2013-11-17 05:31:00,58.0,57.2,29.62,SE,125,4.3,6.3,97,0.04,,---,0.09,VWS V14.01,2013-11-17 10:31:00,
2013-11-17 05:36:00,58.0,57.2,29.62,SE,125,8.3,9.6,97,0.04,,---,0.09,VWS V14.01,2013-11-17 10:36:00,
2013-11-17 05:41:00,58.0,57.2,29.62,SW,215,2.0,4.0,97,0.04,,---,0.09,VWS V14.01,2013-11-17 10:41:00,
2013-11-17 05:46:00,58.2,57.4,29.62,SW,215,6.3,8.9,97,0.04,,---,0.09,VWS V14.01,2013-11-17 10:46:00,
2013-11-17 05:51:00,58.2,57.4,29.62,SE,125,5.6,5.6,97,0.04,,---,0.09,VWS V14.01,2013-11-17 10:51:00,
2013-11-17 05:56:00,58.2,57.4,29.62,East,80,3.3,3.3,97,0.04,,---,0.09,VWS V14.01,2013-11-17 10:56:00,
2013-11-17 06:01:00,58.2,57.4,29.62,SW,215,5.3,5.6,97,0.04,,---,0.09,VWS V14.01,2013-11-17 11:01:00,
2013-11-17 06:06:00,58.2,57.4,29.62,SE,125,4.3,11.9,97,0.04,,---,0.09,VWS V14.01,2013-11-17 11:06:00,
2013-11-17 06:11:00,58.2,57.4,29.59,SE,125,11.6,11.6,97,0.04,,---,0.09,VWS V14.01,2013-11-17 11:11:00,
2013-11-17 06:16:00,58.2,57.4,29.59,SE,125,4.0,4.0,97,0.00,,---,0.09,VWS V14.01,2013-11-17 11:16:00,
2013-11-17 06:21:00,58.2,57.4,29.59,SE,125,3.0,4.3,97,0.00,,---,0.09,VWS V14.01,2013-11-17 11:21:00,
2013-11-17 06:26:00,58.2,57.4,29.59,WSW,238,5.0,5.0,97,0.00,,---,0.09,VWS V14.01,2013-11-17 11:26:00,
2013-11-17 06:31:00,58.2,57.4,29.59,SE,125,8.3,8.3,97,0.00,,---,0.09,VWS V14.01,2013-11-17 11:31:00,
2013-11-17 06:36:00,58.2,57.4,29.59,SE,125,6.0,6.0,97,0.00,,---,0.09,VWS V14.01,2013-11-17 11:36:00,
2013-11-17 06:41:00,58.2,57.4,29.59,SW,215,4.0,7.0,97,0.00,,---,0.09,VWS V14.01,2013-11-17 11:41:00,
2013-11-17 06:46:00,57.9,57.3,29.59,SW,215,5.3,5.3,98,0.00,,---,0.09,VWS V14.01,2013-11-17 11:46:00,
2013-11-17 06:51:00,57.9,57.0,29.59,SE,125,5.3,9.3,97,0.00,,---,0.09,VWS V14.01,2013-11-17 11:51:00,
2013-11-17 06:56:00,57.9,57.0,29.59,ESE,102,9.6,9.6,97,0.00,,---,0.09,VWS V14.01,2013-11-17 11:56:00,
2013-11-17 07:01:00,57.9,57.0,29.59,SE,125,9.3,9.3,97,0.00,,---,0.09,VWS V14.01,2013-11-17 12:01:00,
2013-11-17 07:06:00,57.9,57.0,29.59,SE,125,7.3,7.3,97,0.04,,---,0.13,VWS V14.01,2013-11-17 12:06:00,
2013-11-17 07:11:00,58.0,57.5,29.59,SW,215,5.3,7.9,98,0.04,,---,0.13,VWS V14.01,2013-11-17 12:11:00,
2013-11-17 07:16:00,58.0,57.5,29.59,SE,125,11.6,11.6,98,0.04,,---,0.13,VWS V14.01,2013-11-17 12:16:00,
2013-11-17 07:21:00,57.9,57.3,29.59,SW,215,4.3,5.3,98,0.04,,---,0.13,VWS V14.01,2013-11-17 12:21:00,
2013-11-17 07:26:00,57.9,57.3,29.59,SE,125,15.2,15.2,98,0.04,,---,0.13,VWS V14.01,2013-11-17 12:26:00,
2013-11-17 07:31:00,57.9,57.3,29.59,SE,125,6.3,11.3,98,0.04,,---,0.13,VWS V14.01,2013-11-17 12:31:00,
2013-11-17 07:36:00,57.7,57.1,29.59,SE,125,7.9,7.9,98,0.04,,---,0.13,VWS V14.01,2013-11-17 12:36:00,
2013-11-17 07:41:00,57.7,57.1,29.59,SE,125,8.3,8.3,98,0.04,,---,0.13,VWS V14.01,2013-11-17 12:41:00,
2013-11-17 07:47:00,57.7,57.1,29.59,SW,215,9.6,9.6,98,0.04,,---,0.13,VWS V14.01,2013-11-17 12:47:00,
2013-11-17 07:52:00,57.7,57.1,29.59,SW,215,3.6,11.6,98,0.04,,---,0.13,VWS V14.01,2013-11-17 12:52:00,
2013-11-17 07:57:00,57.5,56.9,29.59,NW,305,3.6,10.9,98,0.04,,---,0.13,VWS V14.01,2013-11-17 12:57:00,
2013-11-17 08:02:00,57.5,56.9,29.59,SE,125,7.9,7.9,98,0.04,,---,0.13,VWS V14.01,2013-11-17 13:02:00,
2013-11-17 08:07:00,57.5,56.9,29.59,SE,125,9.3,14.9,98,0.00,,---,0.13,VWS V14.01,2013-11-17 13:07:00,
2013-11-17 08:12:00,57.5,56.9,29.59,SE,125,8.3,8.6,98,0.00,,---,0.13,VWS V14.01,2013-11-17 13:12:00,
2013-11-17 08:17:00,57.5,56.9,29.59,SE,125,4.6,4.6,98,0.00,,---,0.13,VWS V14.01,2013-11-17 13:17:00,
2013-11-17 08:22:00,57.5,56.9,29.59,SE,125,8.6,22.9,98,0.00,,---,0.13,VWS V14.01,2013-11-17 13:22:00,
2013-11-17 08:27:00,57.5,56.9,29.56,SE,125,12.9,12.9,98,0.00,,---,0.13,VWS V14.01,2013-11-17 13:27:00,
2013-11-17 08:32:00,57.5,56.9,29.56,SE,125,11.3,11.3,98,0.00,,---,0.13,VWS V14.01,2013-11-17 13:32:00,
2013-11-17 08:37:00,57.5,56.9,29.56,SE,125,8.3,8.3,98,0.00,,---,0.13,VWS V14.01,2013-11-17 13:37:00,
2013-11-17 08:42:00,57.5,56.9,29.56,SW,215,7.3,7.3,98,0.00,,---,0.13,VWS V14.01,2013-11-17 13:42:00,
2013-11-17 08:47:00,57.5,56.9,29.56,SE,125,8.6,8.6,98,0.00,,---,0.13,VWS V14.01,2013-11-17 13:47:00,
2013-11-17 08:52:00,57.5,56.9,29.56,SW,215,9.6,9.6,98,0.00,,---,0.13,VWS V14.01,2013-11-17 13:52:00,
2013-11-17 08:57:00,57.5,56.9,29.56,SW,215,4.6,11.6,98,0.00,,---,0.13,VWS V14.01,2013-11-17 13:57:00,
2013-11-17 09:02:00,57.5,56.9,29.56,SE,125,11.9,12.6,98,0.00,,---,0.13,VWS V14.01,2013-11-17 14:02:00,
2013-11-17 09:07:00,57.5,56.9,29.56,SW,215,9.3,9.3,98,0.00,,---,0.13,VWS V14.01,2013-11-17 14:07:00,
2013-11-17 09:12:00,57.5,56.9,29.56,SW,215,8.9,8.9,98,0.00,,---,0.13,VWS V14.01,2013-11-17 14:12:00,
2013-11-17 09:17:00,57.5,56.9,29.56,SE,125,15.2,15.2,98,0.00,,---,0.13,VWS V14.01,2013-11-17 14:17:00,
2013-11-17 09:22:00,58.0,57.5,29.56,SW,215,4.3,4.3,98,0.00,,---,0.13,VWS V14.01,2013-11-17 14:22:00,
2013-11-17 09:27:00,58.0,57.5,29.53,SW,215,11.3,14.9,98,0.00,,---,0.13,VWS V14.01,2013-11-17 14:27:00,
2013-11-17 09:32:00,58.0,57.5,29.53,SE,125,16.2,16.2,98,0.00,,---,0.13,VWS V14.01,2013-11-17 14:32:00,
2013-11-17 09:37:00,58.4,57.8,29.53,SE,125,14.6,14.6,98,0.00,,---,0.13,VWS V14.01,2013-11-17 14:37:00,
2013-11-17 09:42:00,58.6,58.0,29.53,SE,125,14.6,14.6,98,0.00,,---,0.13,VWS V14.01,2013-11-17 14:42:00,
2013-11-17 09:47:00,58.6,58.0,29.53,SE,125,8.6,15.2,98,0.00,,---,0.13,VWS V14.01,2013-11-17 14:47:00,
2013-11-17 09:52:00,58.6,58.0,29.53,SE,125,15.6,15.6,98,0.00,,---,0.13,VWS V14.01,2013-11-17 14:52:00,
2013-11-17 09:57:00,58.8,58.2,29.53,East,80,18.2,18.2,98,0.00,,---,0.13,VWS V14.01,2013-11-17 14:57:00,
2013-11-17 10:02:00,58.6,58.0,29.53,SE,125,9.9,10.6,98,0.00,,---,0.13,VWS V14.01,2013-11-17 15:02:00,
2013-11-17 10:07:00,58.8,58.2,29.53,SW,215,11.9,19.5,98,0.00,,---,0.13,VWS V14.01,2013-11-17 15:07:00,
2013-11-17 10:12:00,58.8,58.2,29.53,SW,215,7.3,7.3,98,0.00,,---,0.13,VWS V14.01,2013-11-17 15:12:00,
2013-11-17 10:17:00,58.8,58.2,29.53,SE,125,8.3,11.6,98,0.00,,---,0.13,VWS V14.01,2013-11-17 15:17:00,
2013-11-17 10:22:00,58.8,58.2,29.53,SE,125,11.3,14.2,98,0.00,,---,0.13,VWS V14.01,2013-11-17 15:22:00,
2013-11-17 10:27:00,58.8,58.2,29.53,SW,215,9.3,9.3,98,0.00,,---,0.13,VWS V14.01,2013-11-17 15:27:00,
2013-11-17 10:32:00,58.8,58.2,29.53,SE,125,18.9,18.9,98,0.00,,---,0.13,VWS V14.01,2013-11-17 15:32:00,
2013-11-17 10:37:00,58.8,58.2,29.53,SE,125,5.3,12.6,98,0.00,,---,0.13,VWS V14.01,2013-11-17 15:37:00,
2013-11-17 10:42:00,58.9,58.4,29.53,SE,125,29.1,29.1,98,0.00,,---,0.13,VWS V14.01,2013-11-17 15:42:00,
2013-11-17 10:48:00,59.1,58.6,29.53,West,260,11.3,11.3,98,0.00,,---,0.13,VWS V14.01,2013-11-17 15:48:00,
2013-11-17 10:53:00,59.1,58.6,29.53,SE,125,11.3,11.3,98,0.00,,---,0.13,VWS V14.01,2013-11-17 15:53:00,
2013-11-17 10:58:00,59.1,58.6,29.53,SW,215,11.6,11.6,98,0.00,,---,0.13,VWS V14.01,2013-11-17 15:58:00,
2013-11-17 11:03:00,59.3,58.7,29.53,SW,215,9.6,15.9,98,0.00,,---,0.13,VWS V14.01,2013-11-17 16:03:00,
2013-11-17 11:08:00,59.3,58.7,29.53,SE,125,8.3,9.6,98,0.00,,---,0.13,VWS V14.01,2013-11-17 16:08:00,
2013-11-17 11:13:00,59.5,58.9,29.50,SW,215,11.3,22.9,98,0.00,,---,0.13,VWS V14.01,2013-11-17 16:13:00,
2013-11-17 11:18:00,59.7,59.1,29.50,SE,125,12.9,12.9,98,0.00,,---,0.13,VWS V14.01,2013-11-17 16:18:00,
2013-11-17 11:23:00,59.8,59.0,29.50,NE,35,10.6,14.9,97,0.00,,---,0.13,VWS V14.01,2013-11-17 16:23:00,
2013-11-17 11:28:00,59.8,59.0,29.50,SW,215,18.5,18.5,97,0.00,,---,0.13,VWS V14.01,2013-11-17 16:28:00,
2013-11-17 11:33:00,60.2,59.3,29.50,SW,215,11.6,11.6,97,0.00,,---,0.13,VWS V14.01,2013-11-17 16:33:00,
2013-11-17 11:38:00,60.4,59.2,29.50,West,260,8.6,8.6,96,0.00,,---,0.13,VWS V14.01,2013-11-17 16:38:00,
2013-11-17 11:43:00,60.4,59.2,29.47,South,170,22.9,22.9,96,0.00,,---,0.13,VWS V14.01,2013-11-17 16:43:00,
2013-11-17 11:48:00,60.6,59.4,29.47,SW,215,9.6,15.6,96,0.00,,---,0.13,VWS V14.01,2013-11-17 16:48:00,
2013-11-17 11:53:00,60.7,59.3,29.47,SW,215,7.3,8.9,95,0.00,,---,0.13,VWS V14.01,2013-11-17 16:53:00,
2013-11-17 11:58:00,60.9,59.5,29.47,SW,215,12.6,12.6,95,0.00,,---,0.13,VWS V14.01,2013-11-17 16:58:00,
2013-11-17 12:03:00,61.1,59.7,29.47,SE,125,11.3,12.6,95,0.00,,---,0.13,VWS V14.01,2013-11-17 17:03:00,
2013-11-17 12:08:00,61.3,59.5,29.47,SW,215,7.9,7.9,94,0.00,,---,0.13,VWS V14.01,2013-11-17 17:08:00,
2013-11-17 12:13:00,61.3,59.5,29.44,SW,215,8.9,11.6,94,0.00,,---,0.13,VWS V14.01,2013-11-17 17:13:00,
2013-11-17 12:18:00,61.5,59.7,29.44,SW,215,8.6,11.6,94,0.00,,---,0.13,VWS V14.01,2013-11-17 17:18:00,
2013-11-17 12:23:00,61.6,59.9,29.44,SE,125,15.6,15.6,94,0.00,,---,0.13,VWS V14.01,2013-11-17 17:23:00,
2013-11-17 12:28:00,61.8,59.8,29.41,West,260,5.0,21.5,93,0.00,,---,0.13,VWS V14.01,2013-11-17 17:28:00,
2013-11-17 12:33:00,61.8,59.8,29.41,SW,215,11.9,11.9,93,0.00,,---,0.13,VWS V14.01,2013-11-17 17:33:00,
2013-11-17 12:38:00,61.8,59.8,29.41,SW,215,6.0,6.0,93,0.00,,---,0.13,VWS V14.01,2013-11-17 17:38:00,
2013-11-17 12:43:00,61.6,59.6,29.41,SE,125,11.9,11.9,93,0.00,,---,0.13,VWS V14.01,2013-11-17 17:43:00,
2013-11-17 12:48:00,61.8,59.8,29.41,SE,125,7.0,7.0,93,0.00,,---,0.13,VWS V14.01,2013-11-17 17:48:00,
2013-11-17 12:53:00,61.6,59.6,29.41,West,260,8.9,8.9,93,0.00,,---,0.13,VWS V14.01,2013-11-17 17:53:00,
2013-11-17 12:58:00,61.8,59.8,29.41,SW,215,7.3,21.2,93,0.00,,---,0.13,VWS V14.01,2013-11-17 17:58:00,
2013-11-17 13:03:00,61.8,59.8,29.41,South,170,14.9,14.9,93,0.00,,---,0.13,VWS V14.01,2013-11-17 18:03:00,
2013-11-17 13:08:00,61.8,59.8,29.41,SW,215,6.3,8.9,93,0.00,,---,0.13,VWS V14.01,2013-11-17 18:08:00,
2013-11-17 13:13:00,61.8,59.8,29.38,SW,215,12.6,12.6,93,0.00,,---,0.13,VWS V14.01,2013-11-17 18:13:00,
2013-11-17 13:19:00,62.0,60.0,29.38,South,170,25.8,25.8,93,0.00,,---,0.13,VWS V14.01,2013-11-17 18:19:00,
2013-11-17 13:24:00,62.0,60.0,29.38,WSW,238,6.0,15.9,93,0.00,,---,0.13,VWS V14.01,2013-11-17 18:24:00,
2013-11-17 13:29:00,62.0,60.0,29.38,SW,215,5.6,5.6,93,0.00,,---,0.13,VWS V14.01,2013-11-17 18:29:00,
2013-11-17 13:34:00,61.8,59.8,29.38,SW,215,11.9,11.9,93,0.00,,---,0.13,VWS V14.01,2013-11-17 18:34:00,
2013-11-17 13:39:00,61.6,59.9,29.38,SW,215,15.2,15.2,94,0.00,,---,0.13,VWS V14.01,2013-11-17 18:39:00,
2013-11-17 13:44:00,61.5,60.0,29.38,SE,125,17.6,17.6,95,0.04,,---,0.17,VWS V14.01,2013-11-17 18:44:00,
2013-11-17 13:49:00,61.3,59.8,29.38,SE,125,10.9,14.9,95,0.04,,---,0.17,VWS V14.01,2013-11-17 18:49:00,
2013-11-17 13:54:00,61.3,59.8,29.38,SE,125,5.3,5.3,95,0.04,,---,0.17,VWS V14.01,2013-11-17 18:54:00,
2013-11-17 13:59:00,61.3,59.8,29.35,SE,125,7.3,19.5,95,0.04,,---,0.17,VWS V14.01,2013-11-17 18:59:00,
2013-11-17 14:04:00,61.1,59.7,29.35,ESE,102,7.9,8.3,95,0.04,,---,0.17,VWS V14.01,2013-11-17 19:04:00,
2013-11-17 14:09:00,61.1,60.0,29.35,SW,215,11.3,11.3,96,0.04,,---,0.17,VWS V14.01,2013-11-17 19:09:00,
2013-11-17 14:14:00,61.1,59.7,29.35,SW,215,6.3,6.3,95,0.04,,---,0.17,VWS V14.01,2013-11-17 19:14:00,
2013-11-17 14:19:00,61.1,59.7,29.35,SE,125,10.6,17.9,95,0.04,,---,0.17,VWS V14.01,2013-11-17 19:19:00,
2013-11-17 14:24:00,61.1,59.7,29.35,South,170,20.9,20.9,95,0.04,,---,0.17,VWS V14.01,2013-11-17 19:24:00,
2013-11-17 14:29:00,61.1,59.7,29.32,SW,215,20.5,25.8,95,0.04,,---,0.17,VWS V14.01,2013-11-17 19:29:00,
2013-11-17 14:34:00,61.1,59.7,29.32,SE,125,7.3,18.9,95,0.04,,---,0.17,VWS V14.01,2013-11-17 19:34:00,
2013-11-17 14:39:00,61.3,59.5,29.32,SW,215,9.6,11.3,94,0.04,,---,0.17,VWS V14.01,2013-11-17 19:39:00,
2013-11-17 14:44:00,61.1,59.4,29.32,East,80,6.6,13.2,94,0.00,,---,0.17,VWS V14.01,2013-11-17 19:44:00,
2013-11-17 14:49:00,61.3,59.5,29.32,SW,215,14.6,14.6,94,0.00,,---,0.17,VWS V14.01,2013-11-17 19:49:00,
2013-11-17 14:54:00,61.1,59.4,29.32,SE,125,8.6,8.6,94,0.00,,---,0.17,VWS V14.01,2013-11-17 19:54:00,
2013-11-17 14:59:00,61.3,59.5,29.29,SW,215,5.0,9.6,94,0.00,,---,0.17,VWS V14.01,2013-11-17 19:59:00,
2013-11-17 15:04:00,61.3,59.5,29.29,SW,215,11.6,11.6,94,0.00,,---,0.17,VWS V14.01,2013-11-17 20:04:00,
2013-11-17 15:09:00,61.3,59.8,29.29,ESE,102,8.6,15.9,95,0.00,,---,0.17,VWS V14.01,2013-11-17 20:09:00,
2013-11-17 15:14:00,61.1,59.7,29.26,SE,125,17.9,23.2,95,0.00,,---,0.17,VWS V14.01,2013-11-17 20:14:00,
2013-11-17 15:19:00,60.9,59.8,29.26,SE,125,9.6,11.9,96,0.00,,---,0.17,VWS V14.01,2013-11-17 20:19:00,
2013-11-17 15:24:00,60.9,59.8,29.26,SW,215,9.3,10.9,96,0.04,,---,0.21,VWS V14.01,2013-11-17 20:24:00,
2013-11-17 15:29:00,60.7,59.9,29.26,West,260,8.9,8.9,97,0.12,,---,0.29,VWS V14.01,2013-11-17 20:29:00,
2013-11-17 15:34:00,60.7,59.9,29.26,SW,215,4.6,4.6,97,0.16,,---,0.33,VWS V14.01,2013-11-17 20:34:00,
2013-11-17 15:39:00,60.7,59.9,29.26,SW,215,22.5,22.5,97,0.25,,---,0.42,VWS V14.01,2013-11-17 20:39:00,
2013-11-17 15:44:00,56.8,55.1,29.32,WSW,238,30.1,30.1,94,0.37,,---,0.54,VWS V14.01,2013-11-17 20:44:00,
2013-11-17 15:49:00,55.7,54.0,29.32,West,260,15.2,15.2,94,0.45,,---,0.62,VWS V14.01,2013-11-17 20:49:00,
2013-11-17 15:54:00,55.0,53.6,29.32,West,260,14.9,18.5,95,0.54,,---,0.71,VWS V14.01,2013-11-17 20:54:00,
2013-11-17 15:59:00,55.0,53.6,29.29,SW,215,25.2,25.2,95,0.58,,---,0.75,VWS V14.01,2013-11-17 20:59:00,
2013-11-17 16:04:00,54.8,53.7,29.29,SW,215,5.3,8.3,96,0.58,,---,0.75,VWS V14.01,2013-11-17 21:04:00,
2013-11-17 16:10:00,54.8,53.7,29.29,SW,215,14.6,14.6,96,0.58,,---,0.75,VWS V14.01,2013-11-17 21:10:00,
2013-11-17 16:15:00,54.6,53.5,29.26,West,260,7.3,7.3,96,0.58,,---,0.75,VWS V14.01,2013-11-17 21:15:00,
2013-11-17 16:20:00,54.4,53.3,29.26,West,260,5.6,5.6,96,0.58,,---,0.75,VWS V14.01,2013-11-17 21:20:00,
2013-11-17 16:25:00,54.3,53.4,29.26,NW,305,5.3,7.0,97,0.58,,---,0.79,VWS V14.01,2013-11-17 21:25:00,
2013-11-17 16:30:00,54.3,53.4,29.29,SW,215,5.6,5.6,97,0.58,,---,0.83,VWS V14.01,2013-11-17 21:30:00,
2013-11-17 16:35:00,54.3,53.4,29.29,WNW,282,7.0,7.0,97,0.55,,---,0.88,VWS V14.01,2013-11-17 21:35:00,
2013-11-17 16:40:00,54.3,53.4,29.29,West,260,2.3,2.3,97,0.50,,---,0.92,VWS V14.01,2013-11-17 21:40:00,
2013-11-17 16:45:00,54.4,53.6,29.29,West,260,3.3,5.3,97,0.38,,---,0.92,VWS V14.01,2013-11-17 21:45:00,
2013-11-17 16:50:00,54.4,53.6,29.29,SW,215,3.3,3.3,97,0.30,,---,0.92,VWS V14.01,2013-11-17 21:50:00,
2013-11-17 16:55:00,54.4,53.9,29.29,ESE,102,0.0,3.6,98,0.25,,---,0.92,VWS V14.01,2013-11-17 21:55:00,
2013-11-17 17:00:00,54.4,53.9,29.26,SE,125,0.0,0.0,98,0.21,,---,0.00,VWS V14.01,2013-11-17 22:00:00,
2013-11-17 17:05:00,54.4,53.9,29.26,SE,125,4.0,5.0,98,0.17,,---,0.92,VWS V14.01,2013-11-17 22:05:00,
2013-11-17 17:10:00,54.4,53.9,29.26,SW,215,2.3,2.3,98,0.17,,---,0.92,VWS V14.01,2013-11-17 22:10:00,
2013-11-17 17:15:00,54.4,53.9,29.26,SE,125,1.7,8.6,98,0.17,,---,0.92,VWS V14.01,2013-11-17 22:15:00,
2013-11-17 17:21:00,54.3,53.7,29.26,South,170,3.6,6.3,98,0.17,,---,0.92,VWS V14.01,2013-11-17 22:21:00,
2013-11-17 17:26:00,54.3,53.7,29.26,SW,215,5.6,5.6,98,0.13,,---,0.92,VWS V14.01,2013-11-17 22:26:00,
2013-11-17 17:31:00,54.1,53.5,29.26,SW,215,7.0,7.0,98,0.09,,---,0.92,VWS V14.01,2013-11-17 22:31:00,
2013-11-17 17:36:00,53.9,53.3,29.26,SW,215,5.0,5.0,98,0.04,,---,0.92,VWS V14.01,2013-11-17 22:36:00,
2013-11-17 17:41:00,53.9,53.3,29.26,SE,125,2.0,8.6,98,0.00,,---,0.92,VWS V14.01,2013-11-17 22:41:00,
2013-11-17 17:46:00,53.9,53.3,29.26,SW,215,9.6,9.6,98,0.00,,---,0.92,VWS V14.01,2013-11-17 22:46:00,
2013-11-17 17:51:00,54.1,53.5,29.26,SW,215,6.0,14.9,98,0.00,,---,0.92,VWS V14.01,2013-11-17 22:51:00,
2013-11-17 17:57:00,54.3,53.7,29.26,SW,215,9.3,9.3,98,0.00,,---,0.92,VWS V14.01,2013-11-17 22:57:00,
2013-11-17 18:02:00,54.6,54.1,29.26,SW,215,8.3,15.2,98,0.00,,---,0.92,VWS V14.01,2013-11-17 23:02:00,
2013-11-17 18:07:00,54.6,54.1,29.26,SW,215,5.6,8.9,98,0.00,,---,0.92,VWS V14.01,2013-11-17 23:07:00,
2013-11-17 18:12:00,54.8,54.2,29.26,West,260,7.9,7.9,98,0.00,,---,0.92,VWS V14.01,2013-11-17 23:12:00,
2013-11-17 18:17:00,55.0,54.4,29.26,SW,215,13.9,13.9,98,0.00,,---,0.92,VWS V14.01,2013-11-17 23:17:00,
2013-11-17 18:22:00,54.8,54.0,29.26,WSW,238,23.5,47.7,97,0.00,,---,0.92,VWS V14.01,2013-11-17 23:22:00,
2013-11-17 18:27:00,53.0,51.3,29.29,West,260,41.1,41.1,94,0.00,,---,0.92,VWS V14.01,2013-11-17 23:27:00,
2013-11-17 18:32:00,52.1,49.6,29.29,WSW,238,39.1,39.1,91,0.00,,---,0.92,VWS V14.01,2013-11-17 23:32:00,
2013-11-17 18:37:00,51.7,48.9,29.29,West,260,29.1,29.1,90,0.00,,---,0.92,VWS V14.01,2013-11-17 23:37:00,
2013-11-17 18:42:00,51.0,48.2,29.32,West,260,20.5,20.5,90,0.00,,---,0.92,VWS V14.01,2013-11-17 23:42:00,
2013-11-17 18:47:00,49.9,47.1,29.32,West,260,11.9,29.5,90,0.00,,---,0.92,VWS V14.01,2013-11-17 23:47:00,
2013-11-17 18:52:00,49.6,46.8,29.32,West,260,24.8,33.4,90,0.00,,---,0.92,VWS V14.01,2013-11-17 23:52:00,
2013-11-17 18:57:00,49.2,46.1,29.35,West,260,34.1,34.1,89,0.00,,---,0.92,VWS V14.01,2013-11-17 23:57:00,
2013-11-17 19:02:00,48.9,45.2,29.35,West,260,43.4,43.4,87,0.00,,---,0.92,VWS V14.01,2013-11-18 00:02:00,
2013-11-17 19:07:00,48.3,44.3,29.35,SW,215,35.4,35.4,86,0.00,,---,0.92,VWS V14.01,2013-11-18 00:07:00,
2013-11-17 19:12:00,47.6,44.2,29.38,SW,215,14.6,24.2,88,0.04,,---,0.96,VWS V14.01,2013-11-18 00:12:00,
2013-11-17 19:17:00,47.2,44.5,29.38,West,260,36.1,36.1,90,0.04,,---,0.96,VWS V14.01,2013-11-18 00:17:00,
2013-11-17 19:22:00,47.2,44.8,29.38,West,260,7.9,7.9,91,0.04,,---,0.96,VWS V14.01,2013-11-18 00:22:00,
2013-11-17 19:27:00,46.9,44.7,29.38,West,260,29.5,29.5,92,0.04,,---,0.96,VWS V14.01,2013-11-18 00:27:00,
2013-11-17 19:32:00,46.7,44.5,29.38,West,260,21.5,32.5,92,0.04,,---,0.96,VWS V14.01,2013-11-18 00:32:00,
2013-11-17 19:37:00,46.5,44.6,29.38,West,260,15.6,21.2,93,0.04,,---,0.96,VWS V14.01,2013-11-18 00:37:00,
2013-11-17 19:42:00,46.2,44.2,29.38,SW,215,15.9,15.9,93,0.04,,---,0.96,VWS V14.01,2013-11-18 00:42:00,
2013-11-17 19:47:00,45.8,43.6,29.38,West,260,21.9,44.0,92,0.08,,---,1.00,VWS V14.01,2013-11-18 00:47:00,
2013-11-17 19:52:00,45.6,43.7,29.38,West,260,18.2,18.2,93,0.08,,---,1.00,VWS V14.01,2013-11-18 00:52:00,
2013-11-17 19:57:00,45.6,43.7,29.41,NW,305,33.4,33.4,93,0.08,,---,1.00,VWS V14.01,2013-11-18 00:57:00,
2013-11-17 20:02:00,45.6,43.7,29.41,West,260,24.2,24.2,93,0.08,,---,1.00,VWS V14.01,2013-11-18 01:02:00,
2013-11-17 20:08:00,45.6,43.7,29.41,SW,215,11.9,31.1,93,0.08,,---,1.00,VWS V14.01,2013-11-18 01:08:00,
2013-11-17 20:13:00,44.4,42.2,29.41,West,260,23.5,39.7,92,0.04,,---,1.00,VWS V14.01,2013-11-18 01:13:00,
2013-11-17 20:18:00,44.4,42.2,29.41,West,260,21.9,35.4,92,0.04,,---,1.00,VWS V14.01,2013-11-18 01:18:00,
2013-11-17 20:23:00,44.0,42.1,29.41,West,260,18.5,23.8,93,0.04,,---,1.00,VWS V14.01,2013-11-18 01:23:00,
2013-11-17 20:28:00,44.0,42.1,29.44,West,260,8.6,12.6,93,0.04,,---,1.00,VWS V14.01,2013-11-18 01:28:00,
2013-11-17 20:33:00,44.0,42.1,29.44,SW,215,15.6,17.9,93,0.04,,---,1.00,VWS V14.01,2013-11-18 01:33:00,
2013-11-17 20:38:00,44.0,42.4,29.44,West,260,26.8,26.8,94,0.04,,---,1.00,VWS V14.01,2013-11-18 01:38:00,
2013-11-17 20:43:00,44.0,42.4,29.44,WSW,238,22.5,38.4,94,0.08,,---,1.04,VWS V14.01,2013-11-18 01:43:00,
2013-11-17 20:48:00,43.8,42.5,29.44,NW,305,18.5,18.5,95,0.04,,---,1.04,VWS V14.01,2013-11-18 01:48:00,
2013-11-17 20:53:00,43.8,42.5,29.44,West,260,15.6,22.5,95,0.04,,---,1.04,VWS V14.01,2013-11-18 01:53:00,
2013-11-17 20:58:00,43.6,42.3,29.47,SW,215,9.3,18.2,95,0.04,,---,1.04,VWS V14.01,2013-11-18 01:58:00,
2013-11-17 21:03:00,43.6,42.3,29.47,West,260,11.9,19.2,95,0.04,,---,1.04,VWS V14.01,2013-11-18 02:03:00,
2013-11-17 21:08:00,43.6,42.3,29.47,West,260,25.8,25.8,95,0.04,,---,1.04,VWS V14.01,2013-11-18 02:08:00,
2013-11-17 21:13:00,43.8,42.8,29.47,WNW,282,21.9,22.9,96,0.04,,---,1.04,VWS V14.01,2013-11-18 02:13:00,
2013-11-17 21:18:00,43.6,42.6,29.47,West,260,14.2,19.5,96,0.04,,---,1.04,VWS V14.01,2013-11-18 02:18:00,
2013-11-17 21:23:00,43.6,42.6,29.47,SW,215,23.5,23.5,96,0.04,,---,1.04,VWS V14.01,2013-11-18 02:23:00,
2013-11-17 21:28:00,43.6,42.6,29.50,SW,215,35.1,35.1,96,0.08,,---,1.08,VWS V14.01,2013-11-18 02:28:00,
2013-11-17 21:33:00,43.6,42.6,29.50,West,260,12.6,15.6,96,0.08,,---,1.08,VWS V14.01,2013-11-18 02:33:00,
2013-11-17 21:38:00,43.6,42.6,29.50,West,260,19.2,30.5,96,0.08,,---,1.08,VWS V14.01,2013-11-18 02:38:00,
2013-11-17 21:43:00,43.6,42.6,29.50,West,260,18.2,22.5,96,0.04,,---,1.08,VWS V14.01,2013-11-18 02:43:00,
2013-11-17 21:48:00,43.6,42.6,29.50,SW,215,19.5,19.5,96,0.04,,---,1.08,VWS V14.01,2013-11-18 02:48:00,
2013-11-17 21:53:00,43.6,42.6,29.50,West,260,15.2,15.6,96,0.04,,---,1.08,VWS V14.01,2013-11-18 02:53:00,
2013-11-17 21:58:00,43.6,42.3,29.50,West,260,33.1,33.1,95,0.04,,---,1.08,VWS V14.01,2013-11-18 02:58:00,
2013-11-17 22:03:00,43.6,42.3,29.50,West,260,11.9,16.2,95,0.04,,---,1.08,VWS V14.01,2013-11-18 03:03:00,
2013-11-17 22:08:00,43.6,42.3,29.50,West,260,14.2,14.2,95,0.04,,---,1.08,VWS V14.01,2013-11-18 03:08:00,
2013-11-17 22:13:00,43.6,42.3,29.53,West,260,16.6,33.4,95,0.04,,---,1.08,VWS V14.01,2013-11-18 03:13:00,
2013-11-17 22:18:00,43.6,42.3,29.53,West,260,12.6,12.6,95,0.04,,---,1.08,VWS V14.01,2013-11-18 03:18:00,
2013-11-17 22:23:00,43.6,42.3,29.53,West,260,8.3,18.5,95,0.04,,---,1.08,VWS V14.01,2013-11-18 03:23:00,
2013-11-17 22:28:00,43.8,41.9,29.53,WNW,282,17.9,24.8,93,0.04,,---,1.08,VWS V14.01,2013-11-18 03:28:00,
2013-11-17 22:33:00,43.8,41.9,29.53,West,260,14.2,22.5,93,0.00,,---,1.08,VWS V14.01,2013-11-18 03:33:00,
2013-11-17 22:38:00,43.8,41.7,29.53,West,260,18.9,18.9,92,0.00,,---,1.08,VWS V14.01,2013-11-18 03:38:00,
2013-11-17 22:43:00,43.8,41.4,29.53,NW,305,25.8,28.1,91,0.00,,---,1.08,VWS V14.01,2013-11-18 03:43:00,
2013-11-17 22:48:00,43.8,41.4,29.53,NW,305,25.8,25.8,91,0.00,,---,1.08,VWS V14.01,2013-11-18 03:48:00,
2013-11-17 22:53:00,43.8,41.1,29.53,NW,305,11.3,15.6,90,0.00,,---,1.08,VWS V14.01,2013-11-18 03:53:00,
2013-11-17 22:59:00,43.6,40.9,29.56,NW,305,15.2,18.2,90,0.00,,---,1.08,VWS V14.01,2013-11-18 03:59:00,
2013-11-17 23:04:00,43.6,40.9,29.56,West,260,18.9,25.8,90,0.00,,---,1.08,VWS V14.01,2013-11-18 04:04:00,
2013-11-17 23:09:00,43.6,40.9,29.56,West,260,7.3,15.6,90,0.00,,---,1.08,VWS V14.01,2013-11-18 04:09:00,
2013-11-17 23:14:00,43.6,40.9,29.56,NW,305,22.9,22.9,90,0.00,,---,1.08,VWS V14.01,2013-11-18 04:14:00,
2013-11-17 23:19:00,43.8,40.5,29.56,West,260,23.8,23.8,88,0.00,,---,1.08,VWS V14.01,2013-11-18 04:19:00,
2013-11-17 23:24:00,43.6,40.0,29.56,West,260,8.3,8.3,87,0.00,,---,1.08,VWS V14.01,2013-11-18 04:24:00,
2013-11-17 23:29:00,43.6,40.0,29.56,West,260,18.2,18.2,87,0.00,,---,1.08,VWS V14.01,2013-11-18 04:29:00,
2013-11-17 23:34:00,43.6,40.0,29.56,West,260,18.2,18.2,87,0.00,,---,1.08,VWS V14.01,2013-11-18 04:34:00,
2013-11-17 23:39:00,43.6,39.7,29.56,NW,305,11.6,11.6,86,0.00,,---,1.08,VWS V14.01,2013-11-18 04:39:00,
2013-11-17 23:44:00,43.6,39.7,29.59,West,260,19.5,19.5,86,0.00,,---,1.08,VWS V14.01,2013-11-18 04:44:00,
2013-11-17 23:49:00,43.6,39.4,29.59,West,260,29.1,29.1,85,0.00,,---,1.08,VWS V14.01,2013-11-18 04:49:00,
2013-11-17 23:54:00,43.6,39.4,29.59,West,260,33.1,33.1,85,0.00,,---,1.08,VWS V14.01,2013-11-18 04:54:00,
2013-11-17 23:59:00,43.6,39.4,29.59,West,260,23.2,23.2,85,0.00,,---,1.08,VWS V14.01,2013-11-18 04:59:00,